| time (UTC) | temp C | wind direction | speed KPH | gust KPH | rain 1hr cm | rain 24hr cm | rain mn cm | humidity % | barometer mb |
| 20260508144559 | 13 | 329 | 0.0 | 6.4 | 0.00 | 0.00 | 0.00 | 70 | 1018.0 |
| 20260508143050 | 12 | 121 | 1.6 | 4.8 | 0.00 | 0.00 | 0.00 | 74 | 1018.0 |
| 20260508141527 | 12 | 114 | 0.0 | 4.8 | 0.00 | 0.00 | 0.00 | 77 | 1018.0 |
| 20260508140024 | 11 | 115 | 0.0 | 4.8 | 0.00 | 0.00 | 0.00 | 86 | 1018.0 |
| 20260508134504 | 10 | 94 | 0.0 | 0.0 | 0.00 | 0.00 | 0.00 | 92 | 1018.1 |
| 20260508133003 | 10 | 96 | 0.0 | 0.0 | 0.00 | 0.00 | 0.00 | 94 | 1017.9 |
| 20260508131545 | 9 | 93 | 0.0 | 0.0 | 0.00 | 0.00 | 0.00 | 95 | 1017.8 |
| 20260508130045 | 8 | 97 | 0.0 | 1.6 | 0.00 | 0.00 | 0.00 | 95 | 1017.9 |
| 20260508124527 | 8 | 99 | 0.0 | 0.0 | 0.00 | 0.38 | 0.00 | 95 | 1018.0 |
| 20260508123031 | 7 | 98 | 0.0 | 0.0 | 0.00 | 0.38 | 0.00 | 95 | 1018.0 |
| 20260508121513 | 7 | 103 | 0.0 | 0.0 | 0.00 | 0.38 | 0.00 | 94 | 1017.9 |
| 20260508120006 | 6 | 107 | 0.0 | 0.0 | 0.00 | 0.38 | 0.00 | 93 | 1017.5 |
| 20260508114546 | 6 | 106 | 0.0 | 0.0 | 0.00 | 0.38 | 0.00 | 93 | 1017.3 |
| 20260508113109 | 6 | 109 | 0.0 | 0.0 | 0.00 | 0.38 | 0.00 | 93 | 1017.1 |
| 20260508111525 | 6 | 107 | 0.0 | 0.0 | 0.00 | 0.38 | 0.00 | 93 | 1016.7 |
| 20260508110023 | 7 | 108 | 0.0 | 0.0 | 0.00 | 0.38 | 0.00 | 92 | 1016.4 |
| 20260508104503 | 7 | 109 | 0.0 | 0.0 | 0.00 | 0.38 | 0.00 | 92 | 1016.4 |
| 20260508103002 | 7 | 110 | 0.0 | 0.0 | 0.00 | 0.38 | 0.00 | 92 | 1016.1 |
| 20260508101547 | 7 | 109 | 0.0 | 0.0 | 0.00 | 0.38 | 0.00 | 92 | 1016.0 |
| 20260508100042 | 7 | 109 | 0.0 | 0.0 | 0.00 | 0.38 | 0.00 | 91 | 1015.6 |
| 20260508094524 | 7 | 108 | 0.0 | 0.0 | 0.00 | 0.38 | 0.00 | 91 | 1015.6 |
| 20260508093024 | 7 | 106 | 0.0 | 0.0 | 0.00 | 0.38 | 0.00 | 91 | 1015.7 |
| 20260508091506 | 7 | 106 | 0.0 | 0.0 | 0.00 | 0.38 | 0.00 | 91 | 1015.6 |
| 20260508090005 | 7 | 106 | 0.0 | 0.0 | 0.00 | 0.46 | 0.00 | 90 | 1015.5 |
| 20260508084551 | 8 | 105 | 0.0 | 0.0 | 0.00 | 0.46 | 0.00 | 90 | 1015.4 |
| 20260508083051 | 8 | 105 | 0.0 | 0.0 | 0.00 | 0.46 | 0.00 | 89 | 1015.3 |
| 20260508081555 | 8 | 105 | 0.0 | 0.0 | 0.00 | 0.46 | 0.00 | 88 | 1015.4 |
| 20260508080048 | 8 | 107 | 0.0 | 0.0 | 0.00 | 0.46 | 0.00 | 87 | 1015.5 |
| 20260508074550 | 8 | 107 | 0.0 | 0.0 | 0.00 | 0.53 | 0.00 | 85 | 1015.3 |
| 20260508073047 | 8 | 109 | 0.0 | 0.0 | 0.00 | 0.53 | 0.00 | 86 | 1015.4 |
| 20260508071545 | 8 | 109 | 0.0 | 0.0 | 0.00 | 0.53 | 0.00 | 87 | 1015.5 |
| 20260508070045 | 8 | 110 | 0.0 | 0.0 | 0.00 | 0.53 | 0.00 | 85 | 1015.6 |
| 20260508064548 | 8 | 109 | 0.0 | 0.0 | 0.00 | 0.69 | 0.00 | 86 | 1015.6 |
| 20260508063028 | 8 | 109 | 0.0 | 0.0 | 0.00 | 0.69 | 0.00 | 86 | 1015.7 |
| 20260508061507 | 8 | 107 | 0.0 | 0.0 | 0.00 | 0.69 | 0.00 | 88 | 1015.7 |
| 20260508060005 | 9 | 103 | 0.0 | 0.0 | 0.00 | 0.69 | 0.00 | 89 | 1015.9 |
| 20260508054608 | 9 | 103 | 0.0 | 0.0 | 0.00 | 0.69 | 0.00 | 89 | 1015.8 |
| 20260508053045 | 9 | 101 | 0.0 | 0.0 | 0.00 | 0.69 | 0.00 | 88 | 1015.8 |
| 20260508051529 | 9 | 99 | 0.0 | 0.0 | 0.00 | 0.69 | 0.00 | 88 | 1015.6 |
| 20260508050034 | 9 | 98 | 0.0 | 0.0 | 0.00 | 0.69 | 0.00 | 88 | 1015.4 |
| 20260508044507 | 10 | 98 | 0.0 | 0.0 | 0.00 | 0.71 | 0.00 | 87 | 1015.4 |
| 20260508043008 | 10 | 98 | 0.0 | 0.0 | 0.00 | 0.71 | 0.00 | 87 | 1015.4 |
| 20260508041548 | 10 | 98 | 0.0 | 0.0 | 0.00 | 0.71 | 0.00 | 87 | 1015.4 |
| 20260508040054 | 10 | 98 | 0.0 | 0.0 | 0.00 | 0.71 | 0.00 | 86 | 1015.5 |
| 20260508034529 | 10 | 97 | 0.0 | 0.0 | 0.00 | 1.14 | 0.00 | 86 | 1015.3 |
| 20260508033025 | 10 | 96 | 0.0 | 0.0 | 0.00 | 1.14 | 0.00 | 85 | 1015.4 |
| 20260508031507 | 10 | 96 | 0.0 | 0.0 | 0.00 | 1.14 | 0.00 | 84 | 1015.1 |
| 20260508030003 | 11 | 95 | 0.0 | 0.0 | 0.00 | 1.32 | 0.00 | 85 | 1014.9 |
| 20260508024544 | 11 | 95 | 0.0 | 3.2 | 0.00 | 1.32 | 0.00 | 85 | 1014.8 |
| 20260508023043 | 11 | 94 | 0.0 | 0.0 | 0.00 | 1.32 | 0.00 | 84 | 1014.8 |
| 20260508021524 | 11 | 94 | 0.0 | 0.0 | 0.00 | 1.32 | 0.00 | 83 | 1014.9 |
| 20260508020022 | 11 | 94 | 0.0 | 1.6 | 0.00 | 1.32 | 0.00 | 83 | 1014.7 |
| 20260508014503 | 11 | 94 | 0.0 | 0.0 | 0.00 | 1.42 | 0.00 | 82 | 1014.5 |
| 20260508013001 | 12 | 95 | 0.0 | 0.0 | 0.00 | 1.42 | 0.00 | 79 | 1014.3 |
| 20260508011549 | 12 | 94 | 0.0 | 1.6 | 0.00 | 1.42 | 0.00 | 81 | 1014.2 |
| 20260508010042 | 12 | 95 | 0.0 | 1.6 | 0.00 | 1.42 | 0.00 | 78 | 1014.0 |
| 20260508004534 | 13 | 107 | 0.0 | 1.6 | 0.00 | 1.65 | 0.00 | 78 | 1013.8 |
| 20260508003020 | 13 | 96 | 0.0 | 1.6 | 0.00 | 1.65 | 0.00 | 79 | 1013.6 |
| 20260508001502 | 14 | 95 | 0.0 | 1.6 | 0.00 | 1.65 | 0.00 | 79 | 1013.5 |
| 20260508000004 | 15 | 96 | 0.0 | 1.6 | 0.00 | 1.96 | 0.00 | 77 | 1013.3 |
| 20260507234547 | 15 | 102 | 0.0 | 0.0 | 0.00 | 1.96 | 0.00 | 75 | 1013.3 |
| 20260507233043 | 15 | 92 | 0.0 | 1.6 | 0.00 | 1.96 | 0.00 | 75 | 1013.2 |
| 20260507231524 | 16 | 88 | 0.0 | 1.6 | 0.00 | 1.96 | 0.00 | 73 | 1013.3 |
| 20260507230023 | 16 | 88 | 0.0 | 1.6 | 0.00 | 1.96 | 0.00 | 72 | 1013.2 |
| 20260507224509 | 16 | 82 | 0.0 | 3.2 | 0.00 | 2.67 | 0.00 | 73 | 1013.1 |
| 20260507223009 | 17 | 82 | 0.0 | 3.2 | 0.00 | 2.67 | 0.00 | 69 | 1013.1 |
| 20260507221549 | 17 | 78 | 0.0 | 3.2 | 0.00 | 2.67 | 0.00 | 70 | 1013.0 |
| 20260507220046 | 18 | 355 | 0.0 | 8.0 | 0.00 | 2.67 | 0.00 | 67 | 1012.9 |
| 20260507214531 | 18 | 144 | 0.0 | 4.8 | 0.00 | 2.74 | 0.00 | 68 | 1012.9 |
| 20260507213027 | 18 | 144 | 1.6 | 6.4 | 0.00 | 2.74 | 0.00 | 69 | 1012.7 |
| 20260507211510 | 18 | 292 | 0.0 | 0.0 | 0.00 | 2.74 | 0.00 | 72 | 1012.5 |
| 20260507210009 | 17 | 290 | 0.0 | 4.8 | 0.00 | 2.74 | 0.00 | 70 | 1012.5 |
| 20260507204608 | 18 | 316 | 0.0 | 4.8 | 0.00 | 2.74 | 0.00 | 69 | 1012.4 |
| 20260507203052 | 19 | 341 | 1.6 | 6.4 | 0.00 | 2.74 | 0.00 | 67 | 1012.2 |
| 20260507201548 | 18 | 173 | 0.0 | 3.2 | 0.00 | 2.74 | 0.00 | 75 | 1012.3 |
| 20260507200031 | 18 | 175 | 1.6 | 4.8 | 0.00 | 2.74 | 0.00 | 72 | 1012.3 |
| 20260507194528 | 18 | 102 | 3.2 | 4.8 | 0.00 | 2.74 | 0.00 | 73 | 1012.1 |
| 20260507193011 | 17 | 61 | 1.6 | 4.8 | 0.00 | 2.74 | 0.00 | 76 | 1012.5 |
| 20260507191508 | 17 | 344 | 0.0 | 4.8 | 0.00 | 2.74 | 0.00 | 75 | 1012.6 |
| 20260507190046 | 17 | 325 | 0.0 | 3.2 | 0.00 | 2.74 | 0.00 | 76 | 1012.6 |
| 20260507184548 | 17 | 320 | 0.0 | 4.8 | 0.00 | 4.22 | 0.00 | 78 | 1012.8 |
| 20260507183025 | 17 | 317 | 0.0 | 3.2 | 0.00 | 4.22 | 0.00 | 76 | 1013.0 |
| 20260507181524 | 16 | 134 | 3.2 | 4.8 | 0.00 | 4.22 | 0.00 | 81 | 1012.9 |
| 20260507180005 | 16 | 231 | 1.6 | 4.8 | 0.00 | 4.45 | 0.00 | 76 | 1013.2 |
| 20260507174513 | 16 | 164 | 1.6 | 4.8 | 0.00 | 4.45 | 0.00 | 79 | 1013.1 |
| 20260507173043 | 16 | 140 | 1.6 | 4.8 | 0.00 | 4.45 | 0.00 | 80 | 1013.2 |
| 20260507171559 | 15 | 129 | 1.6 | 6.4 | 0.00 | 4.45 | 0.00 | 79 | 1013.4 |
| 20260507170025 | 15 | 200 | 0.0 | 6.4 | 0.00 | 4.45 | 0.00 | 83 | 1013.4 |
| 20260507164620 | 15 | 117 | 1.6 | 6.4 | 0.00 | 4.52 | 0.00 | 85 | 1013.4 |
| 20260507163059 | 15 | 360 | 0.0 | 4.8 | 0.00 | 4.52 | 0.00 | 87 | 1013.3 |
| 20260507161557 | 13 | 182 | 0.0 | 3.2 | 0.00 | 4.52 | 0.00 | 89 | 1013.2 |
| 20260507160048 | 13 | 185 | 1.6 | 4.8 | 0.00 | 4.52 | 0.00 | 94 | 1013.3 |
| 20260507154531 | 12 | 181 | 0.0 | 3.2 | 0.00 | 4.60 | 0.00 | 95 | 1013.5 |
| 20260507153017 | 12 | 182 | 0.0 | 3.2 | 0.00 | 4.60 | 0.00 | 95 | 1013.4 |
| 20260507151510 | 12 | 175 | 1.6 | 4.8 | 0.00 | 4.60 | 0.00 | 96 | 1013.3 |
| 20260507150056 | 12 | 163 | 0.0 | 3.2 | 0.00 | 4.60 | 0.00 | 96 | 1013.0 |